Location: *
(46.1866°S, 178.5290°W)
Time: 10:51:13
(UTC+00:00)

NOSS 3-1 (C) - Pass Details

Date: 19 May 2021
Orbit: 732 x 1476 km, 63.4° (Epoch: 18 April)

Event Time Altitude Azimuth Distance (km) Brightness Sun altitude
Rises 07:03:29 0° 336° (NNW) 4,572 7.3 -26.6°
Reaches altitude 10° 07:06:33 10° 338° (NNW) 3,568 6.7 -27.2°
Maximum altitude 07:15:19 67° 57° (ENE) 1,452 4.1 -28.7°
Enters shadow 07:16:24 61° 95° (E) 1,490 4.0 -28.9°
